Regional Weather Roundup
Issued by NWS

Home | Current Version | Previous Version | Graphics & Text | Print | Product List | Glossary On
Versions: 1 2 3 4 5 6 7 8 9 10 11 12 13 14 15 16 17 18 19 20 21 22 23 24 25 26 27 28 29 30 31 32 33 34 35 36 37 38 39 40 41 42 43 44 45 46 47 48 49 50
000
ASUS43 KIND 021759
RWRIN

WEATHER ROUNDUP FOR INDIANA
NATIONAL WEATHER SERVICE INDIANAPOLIS IN
200 PM EDT THU JUL 02 2015

NOTE: "FAIR" INDICATES FEW OR NO CLOUDS BELOW 12,000 FEET WITH NO
SIGNIFICANT WEATHER AND/OR OBSTRUCTIONS TO VISIBILITY.

* - STATION DOES NOT REPORT WEATHER SUCH AS PRECIPITATION OR FOG.

+ - STATION NOT QUALITY CONTROLLED BY THE NATIONAL WEATHER SERVICE.
    USE DATA WITH CAUTION...ESPECIALLY DEWPOINT AND RELATIVE
    HUMIDITY OBSERVATIONS.

INZ001>003-010>013-019-020-021900-
NORTHWEST INDIANA

CITY           SKY/WX    TMP DP  RH WIND       PRES   REMARKS
GARY /AIRPORT/ PTSUNNY   66  59  77 N14       29.99F
RENSSELAER +   MOSUNNY   73  61  64 NE12G17   29.95F

$$

LMZ046-743>745-021900-
SOUTHERN LAKE MICHIGAN

STATION/POSITION TIME  TEMP    WIND        PRES    WAVE
                       AIR SEA DIR/SP/G            HT
                 (UTC) (F)     (DEG/KT/KT) (MB)    (FT)
BURNS HARBOR     1700   62      10/ 14/ 17 1015.9F
MICHIGAN CITY    1700   61     360/ 14/ 16   N/A
5NW MICH CITY    1700   62 65   20/ 14/ 17   N/A     3

$$

INZ004-005-014>016-021>024-021900-
NORTH CENTRAL INDIANA

CITY           SKY/WX    TMP DP  RH WIND       PRES   REMARKS
ELKHART        PTSUNNY   72  55  56 E10       29.99F
GOSHEN         PTSUNNY   71  56  58 E9        29.98S
6HR MIN TEMP:  57; 6HR MAX TEMP:  73;

SOUTH BEND     PTSUNNY   73  55  53 NE5       29.99S
6HR MIN TEMP:  57; 6HR MAX TEMP:  73;


$$

INZ006>009-017-018-025>027-021900-
NORTHEAST INDIANA

CITY           SKY/WX    TMP DP  RH WIND       PRES   REMARKS
ANGOLA *+        N/A     72  63  73 E8        29.99S
FORT WAYNE     PTSUNNY   74  62  66 E10       29.97S
6HR MIN TEMP:  62; 6HR MAX TEMP:  74;


$$

INZ028-029-035-036-043>045-051>053-021900-
WEST CENTRAL INDIANA

CITY           SKY/WX    TMP DP  RH WIND       PRES   REMARKS
CRAWFORDSVL +  SUNNY     73  59  61 N6        29.91F
6HR MIN TEMP:  57; 6HR MAX TEMP:  73;

GREENCASTLE +  CLOUDY    73  59  60 NE6       29.91S
LAFAYETTE      SUNNY     72  61  68 NE12      29.92F
6HR MIN TEMP:  57; 6HR MAX TEMP:  73;

TERRE HAUTE    PTSUNNY   75  64  68 N7        29.89F
6HR MIN TEMP:  63; 6HR MAX TEMP:  76;


$$

INZ030>032-037>040-046>048-054>057-064-065-021900-
CENTRAL INDIANA

CITY           SKY/WX    TMP DP  RH WIND       PRES   REMARKS
ANDERSON       MOSUNNY   75  57  53 NE6       29.93F
COLUMBUS       CLOUDY    73  64  73 N8        29.89
GREENWOOD *+   PTSUNNY   75  63  64 N8        29.90F
INDIANAPOLIS   PTSUNNY   77  62  59 E7        29.89S
6HR MIN TEMP:  63; 6HR MAX TEMP:  77;

-EAGLE CREEK   PTSUNNY   76  63  64 NE9       29.90F
6HR MIN TEMP:  63; 6HR MAX TEMP:  76;

KOKOMO *+      PTSUNNY   73  63  68 E10       29.92F
6HR MIN TEMP:  61; 6HR MAX TEMP:  73;

MT COMFORT *+  SUNNY     77  57  50 E7        29.91F
SHELBYVILLE    PTSUNNY   78  66  66 NE8       29.89F
6HR MIN TEMP:  65; 6HR MAX TEMP:  78;


$$

INZ033-034-041-042-049-050-058-059-021900-
EAST CENTRAL INDIANA

CITY           SKY/WX    TMP DP  RH WIND       PRES   REMARKS
MUNCIE         PTSUNNY   76  63  64 E10       29.92F
6HR MIN TEMP:  62; 6HR MAX TEMP:  76;


$$

INZ060-061-067>069-081>083-085>088-021900-
SOUTHWEST INDIANA

CITY           SKY/WX    TMP DP  RH WIND       PRES   REMARKS
EVANSVILLE     PTSUNNY   78  69  73 E7        29.88S
6HR MIN TEMP:  71; 6HR MAX TEMP:  78; 6HR PCP:  0.02;

HUNTINGBURG *+ CLOUDY    75  68  78 SW7       29.88S

$$

INZ062-063-066-070>080-084-089>092-021900-
SOUTH CENTRAL AND SOUTHEAST INDIANA

CITY           SKY/WX    TMP DP  RH WIND       PRES   REMARKS
BLOOMINGTON    PTSUNNY   77  66  68 N6        29.89S
6HR MIN TEMP:  65; 6HR MAX TEMP:  77;

MADISON *+     CLOUDY    73  68  83 S5        29.90S
SEYMOUR +      PTSUNNY   79  68  69 N7        29.87F

$$



USA.gov is the U.S. government's official web portal to all federal, state and local government web resources and services.